[[{"header":{"parameterUnit":"m.s-1","parameterCategory":1,"la1":30.2991,"la2":30.254,"lo1":-89.0895,"lo2":-89.0444,"dy":0.0017,"dx":0.0017,"nx":28,"ny":28,"refTime":"2025-06-17T09:00:00:Z","depth":0,"parameterNumber":2,"parameterNumberName":"U-component_of_WINDS"},"data":[0,0,0,0,0,0,0,0,0,0,0,0,0,0,0,0,0,0,0,0,0,0,0,0,0,0,0,0,0,0,0,0,0,0,0,0,0,0,0,0,0,0,0,0,0,0,0,0,0,0,0,0,0,0,0,0,0,0,0.3453,0.3452,0,0.3389,0.3389,0.3388,0.3349,0.3349,0.3349,0.3348,0.3283,0.3282,0.328,0,0,0,0,0,0,0,0,0,0,0,0,0,0.3538,0.3537,0.3453,0.3452,0.3451,0.3389,0.3389,0.3388,0.3349,0.3349,0.3349,0.3348,0.3284,0.3282,0.328,0,0,0,0,0,0,0,0,0,0,0,0,0,0.3491,0.3536,0.3453,0.3424,0.3421,0.339,0.3389,0.3387,0.3349,0.3349,0.3348,0.3348,0.3284,0.3282,0.328,0.3271,0,0,0.3273,0.3272,0,0,0,0,0,0,0,0,0.3493,0.3487,0.3429,0.3426,0.3423,0.3377,0.3395,0.3349,0.3349,0.3376,0.3348,0.3348,0.3314,0.331,0.3298,0.3268,0.3265,0.3272,0.3271,0.327,0.3269,0,0,0,0,0,0,0,0.3497,0.349,0.3428,0.3429,0.3424,0.3414,0.3407,0.3386,0.3348,0.3374,0.3371,0.3364,0.3313,0.3301,0.3297,0.3264,0.3272,0.327,0.3269,0.3268,0.3221,0.3222,0,0,0,0,0,0,0.3505,0.3493,0.343,0.3426,0.3458,0.3413,0.3405,0.3392,0.3348,0.3341,0.3364,0.3363,0.3305,0.3299,0.3294,0.328,0.327,0.3268,0.3266,0.3221,0.3221,0.3222,0,0,0,0,0,0,0.3507,0.3499,0.3432,0.3458,0.3449,0.3412,0.3397,0.3391,0.3379,0.3341,0.3334,0.3359,0.3304,0.3297,0.3277,0.3277,0.3267,0.3265,0.3221,0.3221,0.3222,0.3252,0,0,0,0,0,0,0.3509,0.35,0.3497,0.3459,0.3448,0.3417,0.3397,0.339,0.3375,0.3372,0.3334,0.3328,0.3304,0.328,0.3274,0.3274,0.3263,0.3221,0.3221,0.3221,0.3251,0.3253,0.3255,0,0,0,0,0,0.3512,0.3509,0.3497,0.349,0.3444,0.3417,0.341,0.3383,0.3375,0.3371,0.3346,0.3329,0.3278,0.3279,0.3272,0.327,0.3221,0.3221,0.3221,0.325,0.3253,0.3255,0,0,0,0,0,0,0.3549,0.3503,0.349,0.3474,0.345,0.341,0.3405,0.3387,0.3364,0.3363,0.3329,0.3321,0.3303,0.3284,0.3286,0.3258,0.3247,0.3246,0.3271,0.3274,0.3276,0.328,0.3261,0,0,0,0,0,0.3555,0.3538,0.3499,0.3488,0.3476,0.3443,0.343,0.3411,0.3384,0.3373,0.3347,0.3321,0.3299,0.3285,0.3263,0.3248,0.3238,0.3243,0.3245,0.3247,0.3247,0.3235,0.3236,0.3223,0.3223,0.3223,0,0,0.3568,0.3541,0.3532,0.3495,0.3473,0.3455,0.3434,0.3416,0.3402,0.3371,0.3349,0.3329,0.3298,0.3279,0.3269,0.3263,0.3248,0.3248,0.325,0.3248,0.3236,0.3237,0.3238,0.3223,0.3223,0.3223,0,0,0.3581,0.356,0.3548,0.3526,0.3494,0.3471,0.3468,0.3431,0.3416,0.3394,0.3369,0.3351,0.3315,0.3293,0.3277,0.328,0.3262,0.3274,0.3285,0.3274,0.3275,0.3276,0.3276,0.3276,0.3273,0.3273,0.3273,0,0.3601,0.3573,0.3544,0.3526,0.351,0.348,0.3467,0.3448,0.341,0.3399,0.3392,0.3343,0.3321,0.3295,0.3296,0.3285,0.3279,0.3278,0.3278,0.3278,0.3278,0.3278,0.3278,0.3275,0.3275,0.3274,0.3274,0,0.3598,0.3578,0.3572,0.3536,0.3519,0.3504,0.3471,0.3458,0.3439,0.3417,0.3394,0.3365,0.3335,0.3328,0.3311,0.33,0.3296,0.3284,0.3272,0.3282,0.328,0.328,0.3277,0.3276,0.3276,0.3275,0,0,0.3633,0.3579,0.3578,0.356,0.3521,0.3505,0.3488,0.3459,0.3447,0.3421,0.3405,0.3374,0.3361,0.3343,0.3323,0.3313,0.3315,0.3302,0.3301,0.3304,0.3299,0.3308,0.3309,0.3303,0.3303,0.3303,0.3302,0,0.364,0.3608,0.358,0.3558,0.3538,0.3509,0.3493,0.3468,0.3446,0.3426,0.3401,0.3379,0.3366,0.3354,0.3343,0.3317,0.3314,0.3317,0.3287,0.3286,0.3295,0.3308,0.3318,0.3318,0.3301,0.3301,0.3301,0,0.3643,0.3618,0.3594,0.3555,0.3546,0.3533,0.3503,0.3485,0.3454,0.3438,0.3417,0.3396,0.3375,0.3365,0.3335,0.3338,0.3324,0.3309,0.3308,0.3304,0.3294,0.3303,0.3318,0.3317,0.33,0.33,0.33,0,0.367,0.363,0.361,0.3596,0.3551,0.3542,0.3522,0.3491,0.3475,0.3448,0.3437,0.3409,0.3393,0.3371,0.3342,0.3338,0.3314,0.3302,0.33,0.33,0.3296,0.3296,0.3307,0.3288,0.3288,0.3288,0.3288,0,0.3679,0.3665,0.3621,0.3608,0.3591,0.3559,0.3542,0.352,0.3493,0.3474,0.3447,0.3431,0.3393,0.3372,0.3349,0.3326,0.332,0.3306,0.33,0.3308,0.331,0.3298,0.3297,0.3288,0.3288,0.3288,0.3288,0,0.3706,0.3676,0.3651,0.361,0.3599,0.3588,0.3552,0.3539,0.3515,0.3492,0.3485,0.3448,0.3421,0.3389,0.3352,0.3337,0.3316,0.3307,0.3326,0.3323,0.3321,0.3321,0.3324,0.3322,0.3306,0.3306,0.3306,0,0.3714,0.3702,0.3659,0.3645,0.3626,0.3604,0.3587,0.3554,0.3537,0.35,0.3491,0.3462,0.3437,0.3395,0.3364,0.3335,0.3325,0.3328,0.3321,0.3329,0.3324,0.3324,0.3322,0.333,0.3331,0.3331,0.3331,0,0.373,0.3715,0.3692,0.3662,0.3642,0.3618,0.3592,0.3582,0.3543,0.3526,0.3498,0.3478,0.344,0.3411,0.3378,0.3357,0.3337,0.3334,0.3331,0.3339,0.335,0.3343,0.3331,0.3334,0.3333,0.3333,0.3333,0.3333,0.3746,0.3734,0.3701,0.3675,0.3652,0.3628,0.3613,0.3587,0.3563,0.3529,0.3511,0.3483,0.3451,0.3404,0.3384,0.3361,0.3354,0.3351,0.335,0.335,0.3352,0.3354,0.3355,0.3355,0.3355,0.3355,0.3355,0,0.376,0.3737,0.3714,0.3678,0.3657,0.3641,0.3611,0.3594,0.357,0.3542,0.3517,0.3484,0.3456,0.3422,0.3391,0.3379,0.3369,0.3372,0.3372,0.3367,0.336,0.3365,0.3381,0.3381,0.3381,0.3381,0.3381,0.3381,0.3765,0.3742,0.3723,0.3688,0.3666,0.3638,0.3622,0.3599,0.3576,0.3541,0.3517,0.3495,0.3464,0.3431,0.3403,0.3394,0.3383,0.3389,0.3377,0.337,0.3368,0.3366,0.337,0.3387,0.3387,0.3386,0.3386,0.3386]},{"header":{"parameterUnit":"m.s-1","parameterCategory":1,"la1":30.2991,"la2":30.254,"lo1":-89.0895,"lo2":-89.0444,"dy":0.0017,"dx":0.0017,"nx":28,"ny":28,"refTime":"2025-06-17T09:00:00:Z","depth":0,"parameterNumber":3,"parameterNumberName":"V-component_of_WINDS"},"data":[0,0,0,0,0,0,0,0,0,0,0,0,0,0,0,0,0,0,0,0,0,0,0,0,0,0,0,0,0,0,0,0,0,0,0,0,0,0,0,0,0,0,0,0,0,0,0,0,0,0,0,0,0,0,0,0,0,0,6.3023,6.3023,0,6.3044,6.3045,6.3045,6.2974,6.2972,6.297,6.2968,6.2987,6.299,6.2992,0,0,0,0,0,0,0,0,0,0,0,0,0,6.2916,6.2919,6.3023,6.3023,6.3023,6.3044,6.3045,6.3045,6.2975,6.2972,6.2969,6.2967,6.2987,6.2989,6.2992,0,0,0,0,0,0,0,0,0,0,0,0,0,6.2953,6.2919,6.3023,6.2991,6.2988,6.3044,6.3045,6.3045,6.2975,6.2972,6.2969,6.2966,6.2986,6.2989,6.2993,6.308,0,0,6.3004,6.3006,0,0,0,0,0,0,0,0,6.2951,6.2957,6.2995,6.2993,6.299,6.3003,6.3014,6.3057,6.2976,6.298,6.2968,6.2964,6.2995,6.2998,6.3009,6.3081,6.3082,6.3005,6.3007,6.3009,6.301,0,0,0,0,0,0,0,6.2948,6.2955,6.3031,6.2996,6.2993,6.2974,6.2976,6.3022,6.3005,6.2979,6.2974,6.2978,6.2993,6.3005,6.3009,6.3082,6.3005,6.3008,6.301,6.3012,6.3223,6.3227,0,0,0,0,0,0,6.295,6.2954,6.303,6.3032,6.2962,6.2979,6.298,6.3002,6.3004,6.3002,6.2981,6.2975,6.3001,6.3004,6.3009,6.3109,6.3008,6.3012,6.3014,6.322,6.3224,6.3228,0,0,0,0,0,0,6.2948,6.2958,6.3029,6.2991,6.2999,6.2984,6.3009,6.3004,6.3017,6.3005,6.3002,6.2997,6.2998,6.3004,6.3062,6.3109,6.3014,6.3017,6.3216,6.3221,6.3226,6.3311,0,0,0,0,0,0,6.2946,6.2958,6.2992,6.2993,6.3001,6.3084,6.3012,6.3007,6.3024,6.3016,6.3019,6.3017,6.2996,6.3057,6.3066,6.3112,6.302,6.3212,6.3218,6.3224,6.3304,6.3318,6.333,0,0,0,0,0,6.2942,6.3014,6.2994,6.3003,6.3044,6.3087,6.3091,6.3067,6.3028,6.3061,6.3053,6.3017,6.3103,6.3064,6.3073,6.3121,6.3209,6.3217,6.3224,6.3298,6.3315,6.333,0,0,0,0,0,0,6.3019,6.3014,6.2991,6.3066,6.3077,6.3075,6.3116,6.3087,6.3109,6.31,6.3068,6.3069,6.3133,6.3133,6.309,6.3204,6.3149,6.3159,6.3202,6.3218,6.3231,6.3229,6.3023,0,0,0,0,0,6.3044,6.3081,6.3075,6.3141,6.3148,6.3131,6.3149,6.3129,6.3139,6.3143,6.314,6.315,6.3179,6.3199,6.3225,6.3304,6.3302,6.3341,6.3355,6.3366,6.3374,6.3413,6.343,6.3253,6.3253,6.3253,0,0,6.3098,6.31,6.3125,6.3157,6.3163,6.32,6.3136,6.3178,6.3204,6.3149,6.3204,6.3202,6.3211,6.328,6.331,6.3282,6.3423,6.3376,6.3384,6.3387,6.3423,6.344,6.3455,6.3258,6.3257,6.3256,0,0,6.3213,6.322,6.3275,6.3282,6.3293,6.3281,6.3294,6.3296,6.3292,6.3347,6.3306,6.3337,6.3388,6.3395,6.3406,6.3523,6.349,6.3533,6.3602,6.3641,6.3654,6.3667,6.3706,6.3721,6.3542,6.3542,6.3542,0,6.3277,6.3332,6.3306,6.3351,6.3365,6.3318,6.3372,6.3381,6.3399,6.341,6.3378,6.3441,6.3444,6.3512,6.354,6.3552,6.3564,6.3531,6.3655,6.3667,6.3678,6.3715,6.373,6.3547,6.3546,6.3546,6.3545,0,6.341,6.3449,6.3492,6.3511,6.353,6.358,6.3559,6.3582,6.3561,6.3552,6.3606,6.3609,6.3633,6.3649,6.3628,6.3714,6.3696,6.3661,6.3604,6.37,6.3734,6.3749,6.3554,6.3552,6.3551,6.3549,0,0,6.3573,6.3577,6.3593,6.36,6.3608,6.3637,6.3683,6.3708,6.3727,6.3741,6.3778,6.3822,6.3789,6.3801,6.3781,6.3815,6.3905,6.3775,6.3775,6.3797,6.3997,6.4022,6.4039,6.3884,6.3886,6.3889,6.3995,0,6.3685,6.3765,6.3742,6.3822,6.3856,6.3811,6.3851,6.386,6.3853,6.3879,6.3871,6.3902,6.3857,6.3864,6.3896,6.3888,6.3944,6.388,6.3916,6.3917,6.3913,6.4057,6.4084,6.4185,6.4009,6.4011,6.4013,0,6.3826,6.3845,6.3929,6.3929,6.3942,6.3979,6.3999,6.4026,6.4034,6.4026,6.4039,6.4011,6.4055,6.4,6.4059,6.4016,6.4029,6.4027,6.4031,6.4031,6.3969,6.406,6.4217,6.4231,6.4034,6.4033,6.4031,0,6.3934,6.3981,6.4036,6.4044,6.4047,6.4073,6.4075,6.408,6.4096,6.4113,6.4122,6.4145,6.4157,6.4174,6.4153,6.4115,6.4214,6.4158,6.4207,6.4208,6.4228,6.4227,6.4387,6.4241,6.4241,6.4241,6.424,0,6.4059,6.4111,6.4084,6.4118,6.4174,6.4147,6.4203,6.42,6.4205,6.4236,6.4199,6.4229,6.42,6.4227,6.4211,6.4261,6.4267,6.4261,6.4255,6.4263,6.4263,6.4269,6.4261,6.4245,6.4244,6.4243,6.4242,0,6.4188,6.4173,6.423,6.4227,6.4228,6.4269,6.4266,6.4297,6.4287,6.4327,6.4334,6.4319,6.4348,6.4329,6.4359,6.4348,6.4413,6.4399,6.441,6.4406,6.4455,6.445,6.4623,6.4644,6.4487,6.4488,6.449,0,6.4269,6.4307,6.4309,6.4327,6.4332,6.4363,6.4378,6.4353,6.4371,6.4382,6.4411,6.4437,6.4457,6.4506,6.4497,6.4519,6.4504,6.4563,6.4507,6.4512,6.4502,6.4499,6.4501,6.4574,6.4576,6.4577,6.4578,0,6.4411,6.4401,6.4426,6.4448,6.4468,6.4484,6.4496,6.4513,6.4488,6.4509,6.4539,6.4555,6.4585,6.4611,6.463,6.463,6.46,6.4597,6.4609,6.4615,6.4619,6.4616,6.4439,6.4592,6.4591,6.459,6.4589,6.4588,6.4517,6.4548,6.4554,6.4582,6.4589,6.4601,6.4629,6.4622,6.4647,6.467,6.4654,6.4689,6.4694,6.4716,6.472,6.4747,6.4722,6.4741,6.4745,6.4749,6.4755,6.4617,6.475,6.475,6.4749,6.4749,6.4749,0,6.4655,6.4657,6.4683,6.4702,6.4723,6.4694,6.4706,6.4725,6.4757,6.4765,6.4785,6.4818,6.4844,6.4836,6.4858,6.488,6.4867,6.4887,6.4884,6.4884,6.4776,6.4763,6.4897,6.4897,6.4897,6.4897,6.4897,6.4897,6.473,6.4781,6.4772,6.4825,6.4826,6.486,6.4869,6.488,6.4886,6.4925,6.4945,6.4941,6.4942,6.4964,6.4985,6.4982,6.4991,6.5015,6.5007,6.4907,6.4892,6.4878,6.4864,6.5018,6.5018,6.5112,6.5113,6.5114]}]]